| time (UTC) | temp C | wind direction | speed KPH | gust KPH | rain 1hr cm | rain 24hr cm | rain mn cm | humidity % | barometer mb |
| 20260507171612 | 11 | 231 | 6.4 | 37.0 | 0.00 | 0.61 | 0.03 | 49 | 1006.9 |
| 20260507170057 | 10 | 219 | 11.3 | 43.5 | 0.00 | 0.61 | 0.03 | 45 | 1007.1 |
| 20260507164555 | 11 | 205 | 16.1 | 30.6 | 0.00 | 0.84 | 0.03 | 49 | 1007.3 |
| 20260507163059 | 10 | 205 | 11.3 | 27.4 | 0.00 | 0.84 | 0.03 | 46 | 1007.5 |
| 20260507161554 | 10 | 264 | 6.4 | 27.4 | 0.00 | 0.84 | 0.03 | 53 | 1007.8 |
| 20260507160054 | 10 | 221 | 8.0 | 19.3 | 0.00 | 0.84 | 0.03 | 55 | 1007.9 |
| 20260507154547 | 10 | 218 | 12.9 | 27.4 | 0.00 | 1.04 | 0.03 | 54 | 1008.0 |
| 20260507153049 | 9 | 230 | 12.9 | 27.4 | 0.00 | 1.04 | 0.03 | 57 | 1008.2 |
| 20260507151548 | 9 | 207 | 6.4 | 27.4 | 0.00 | 1.04 | 0.03 | 60 | 1008.2 |
| 20260507150044 | 8 | 246 | 14.5 | 32.2 | 0.00 | 1.04 | 0.03 | 58 | 1008.4 |
| 20260507144541 | 9 | 331 | 11.3 | 29.0 | 0.00 | 1.19 | 0.03 | 61 | 1008.2 |
| 20260507143042 | 8 | 248 | 8.0 | 30.6 | 0.00 | 1.19 | 0.03 | 60 | 1008.2 |
| 20260507141543 | 8 | 257 | 4.8 | 22.5 | 0.00 | 1.19 | 0.03 | 62 | 1008.2 |
| 20260507140036 | 8 | 217 | 8.0 | 20.9 | 0.00 | 1.19 | 0.03 | 64 | 1008.2 |
| 20260507134534 | 7 | 273 | 12.9 | 30.6 | 0.00 | 1.35 | 0.03 | 63 | 1008.1 |
| 20260507133032 | 8 | 267 | 3.2 | 20.9 | 0.00 | 1.35 | 0.03 | 75 | 1008.2 |
| 20260507131533 | 8 | 216 | 4.8 | 16.1 | 0.00 | 1.35 | 0.03 | 79 | 1007.9 |
| 20260507130028 | 7 | 197 | 6.4 | 16.1 | 0.00 | 1.35 | 0.03 | 77 | 1008.1 |
| 20260507124539 | 7 | 240 | 6.4 | 17.7 | 0.00 | 1.60 | 0.03 | 85 | 1008.2 |
| 20260507123019 | 6 | 209 | 4.8 | 14.5 | 0.00 | 1.60 | 0.03 | 90 | 1008.1 |
| 20260507121517 | 5 | 209 | 6.4 | 11.3 | 0.00 | 1.60 | 0.03 | 91 | 1008.0 |
| 20260507120014 | 5 | 211 | 3.2 | 9.7 | 0.00 | 1.60 | 0.03 | 96 | 1007.9 |
| 20260507114512 | 5 | 188 | 1.6 | 9.7 | 0.00 | 1.73 | 0.03 | 97 | 1007.8 |
| 20260507113016 | 5 | 189 | 1.6 | 6.4 | 0.00 | 1.73 | 0.03 | 98 | 1007.8 |
| 20260507111515 | 5 | 243 | 1.6 | 8.0 | 0.00 | 1.73 | 0.03 | 97 | 1007.8 |
| 20260507110024 | 5 | 257 | 0.0 | 0.0 | 0.00 | 1.73 | 0.03 | 98 | 1007.8 |
| 20260507104510 | 5 | 257 | 0.0 | 0.0 | 0.00 | 1.78 | 0.03 | 98 | 1007.7 |
| 20260507103010 | 5 | 257 | 0.0 | 0.0 | 0.00 | 1.78 | 0.03 | 98 | 1007.6 |
| 20260507101510 | 4 | 257 | 0.0 | 3.2 | 0.00 | 1.78 | 0.03 | 97 | 1007.7 |
| 20260507100018 | 4 | 257 | 0.0 | 6.4 | 0.00 | 1.78 | 0.03 | 97 | 1007.6 |
| 20260507094508 | 4 | 105 | 0.0 | 0.0 | 0.00 | 1.91 | 0.03 | 97 | 1007.5 |
| 20260507093008 | 4 | 105 | 0.0 | 0.0 | 0.00 | 1.91 | 0.03 | 97 | 1007.6 |
| 20260507091506 | 4 | 105 | 0.0 | 0.0 | 0.00 | 1.91 | 0.03 | 97 | 1007.6 |
| 20260507090007 | 4 | 105 | 0.0 | 0.0 | 0.00 | 1.91 | 0.03 | 97 | 1007.5 |
| 20260507084502 | 4 | 105 | 0.0 | 0.0 | 0.00 | 2.01 | 0.03 | 97 | 1007.6 |
| 20260507083002 | 5 | 105 | 0.0 | 0.0 | 0.00 | 2.01 | 0.03 | 97 | 1007.8 |
| 20260507081503 | 5 | 105 | 1.6 | 4.8 | 0.00 | 2.01 | 0.03 | 97 | 1007.7 |
| 20260507080001 | 5 | 105 | 0.0 | 3.2 | 0.03 | 2.01 | 0.03 | 97 | 1007.8 |
| 20260507074612 | 5 | 105 | 1.6 | 4.8 | 0.03 | 2.08 | 0.03 | 97 | 1007.9 |
| 20260507073057 | 5 | 96 | 0.0 | 0.0 | 0.03 | 2.08 | 0.03 | 97 | 1007.8 |
| 20260507071557 | 5 | 96 | 0.0 | 0.0 | 0.03 | 2.08 | 0.03 | 97 | 1007.6 |
| 20260507070111 | 5 | 96 | 0.0 | 0.0 | 0.00 | 2.06 | 0.00 | 97 | 1007.4 |
| 20260507064604 | 5 | 96 | 0.0 | 0.0 | 0.00 | 2.08 | 0.00 | 97 | 1007.3 |
| 20260507063058 | 5 | 96 | 0.0 | 0.0 | 0.00 | 2.08 | 0.00 | 97 | 1007.5 |
| 20260507061552 | 5 | 96 | 0.0 | 0.0 | 0.00 | 2.08 | 0.00 | 97 | 1007.6 |
| 20260507060050 | 5 | 96 | 0.0 | 0.0 | 0.00 | 2.08 | 0.00 | 97 | 1007.6 |
| 20260507054553 | 5 | 96 | 0.0 | 0.0 | 0.00 | 2.11 | 0.00 | 97 | 1007.7 |
| 20260507053048 | 5 | 96 | 0.0 | 0.0 | 0.00 | 2.11 | 0.00 | 96 | 1007.7 |
| 20260507051546 | 5 | 96 | 0.0 | 0.0 | 0.00 | 2.11 | 0.00 | 97 | 1008.1 |
| 20260507050043 | 5 | 96 | 0.0 | 0.0 | 0.00 | 2.11 | 0.00 | 96 | 1008.3 |
| 20260507044543 | 5 | 96 | 0.0 | 0.0 | 0.00 | 2.21 | 0.00 | 96 | 1008.2 |
| 20260507043040 | 5 | 96 | 0.0 | 0.0 | 0.00 | 2.21 | 0.00 | 96 | 1008.4 |
| 20260507041538 | 5 | 96 | 0.0 | 0.0 | 0.00 | 2.21 | 0.00 | 96 | 1008.2 |
| 20260507040035 | 6 | 96 | 0.0 | 0.0 | 0.00 | 2.21 | 0.00 | 96 | 1008.4 |
| 20260507034538 | 6 | 96 | 0.0 | 0.0 | 0.00 | 2.34 | 2.21 | 96 | 1008.2 |
| 20260507033033 | 6 | 96 | 0.0 | 0.0 | 0.00 | 2.34 | 2.21 | 96 | 1008.4 |
| 20260507031532 | 6 | 96 | 0.0 | 3.2 | 0.00 | 2.34 | 2.21 | 96 | 1008.5 |
| 20260507030032 | 6 | 96 | 0.0 | 0.0 | 0.00 | 2.34 | 2.21 | 96 | 1008.5 |
| 20260507024530 | 6 | 96 | 0.0 | 1.6 | 0.00 | 2.36 | 2.21 | 96 | 1008.4 |
| 20260507023030 | 6 | 96 | 0.0 | 11.3 | 0.00 | 2.36 | 2.21 | 96 | 1008.2 |
| 20260507021531 | 6 | 126 | 0.0 | 4.8 | 0.00 | 2.36 | 2.21 | 96 | 1008.5 |
| 20260507020039 | 6 | 126 | 0.0 | 6.4 | 0.00 | 2.36 | 2.21 | 96 | 1008.5 |
| 20260507014527 | 6 | 126 | 0.0 | 4.8 | 0.03 | 2.36 | 2.21 | 96 | 1008.5 |
| 20260507013041 | 6 | 126 | 0.0 | 0.0 | 0.05 | 2.36 | 2.21 | 96 | 1008.6 |
| 20260507011526 | 6 | 126 | 0.0 | 0.0 | 0.08 | 2.36 | 2.21 | 96 | 1008.5 |
| 20260507010033 | 6 | 126 | 0.0 | 0.0 | 0.08 | 2.36 | 2.21 | 96 | 1008.2 |
| 20260507004524 | 6 | 126 | 0.0 | 0.0 | 0.05 | 2.34 | 2.18 | 96 | 1008.1 |
| 20260507003024 | 6 | 126 | 0.0 | 0.0 | 0.03 | 2.31 | 2.16 | 96 | 1007.9 |
| 20260507001529 | 6 | 126 | 0.0 | 3.2 | 0.00 | 2.29 | 2.13 | 95 | 1007.6 |
| 20260507000023 | 6 | 126 | 0.0 | 4.8 | 0.00 | 2.29 | 2.13 | 95 | 1007.2 |
| 20260506234529 | 6 | 126 | 0.0 | 3.2 | 0.00 | 2.29 | 2.13 | 95 | 1007.1 |
| 20260506233022 | 6 | 126 | 1.6 | 4.8 | 0.00 | 2.29 | 2.13 | 95 | 1006.9 |
| 20260506231526 | 7 | 126 | 1.6 | 6.4 | 0.00 | 2.29 | 2.13 | 95 | 1006.6 |
| 20260506230026 | 7 | 127 | 0.0 | 1.6 | 0.00 | 2.29 | 2.13 | 95 | 1006.8 |
| 20260506224520 | 7 | 127 | 1.6 | 6.4 | 0.03 | 2.29 | 2.13 | 95 | 1006.7 |
| 20260506223020 | 7 | 127 | 3.2 | 8.0 | 0.03 | 2.29 | 2.13 | 95 | 1006.8 |
| 20260506221520 | 7 | 127 | 3.2 | 11.3 | 0.03 | 2.29 | 2.13 | 96 | 1006.6 |
| 20260506220027 | 7 | 134 | 4.8 | 8.0 | 0.05 | 2.29 | 2.13 | 96 | 1006.5 |
| 20260506214518 | 7 | 106 | 3.2 | 9.7 | 0.05 | 2.26 | 2.11 | 96 | 1006.6 |
| 20260506213018 | 7 | 105 | 8.0 | 14.5 | 0.05 | 2.26 | 2.11 | 96 | 1006.4 |
| 20260506211525 | 7 | 103 | 6.4 | 11.3 | 0.08 | 2.26 | 2.11 | 96 | 1006.4 |
| 20260506210026 | 7 | 92 | 3.2 | 6.4 | 0.08 | 2.24 | 2.08 | 96 | 1006.5 |
| 20260506204517 | 7 | 92 | 3.2 | 9.7 | 0.05 | 2.54 | 2.06 | 95 | 1006.6 |
| 20260506203016 | 7 | 93 | 3.2 | 6.4 | 0.08 | 2.54 | 2.06 | 95 | 1006.4 |
| 20260506201516 | 7 | 95 | 0.0 | 9.7 | 0.10 | 2.51 | 2.03 | 95 | 1006.3 |
| 20260506200032 | 7 | 96 | 0.0 | 6.4 | 0.13 | 2.49 | 2.01 | 96 | 1006.2 |
| 20260506194514 | 7 | 94 | 3.2 | 9.7 | 0.15 | 2.69 | 2.01 | 96 | 1006.2 |
| 20260506193013 | 7 | 84 | 3.2 | 9.7 | 0.13 | 2.67 | 1.98 | 95 | 1006.3 |
| 20260506191513 | 7 | 83 | 3.2 | 9.7 | 0.08 | 2.62 | 1.93 | 95 | 1006.3 |
| 20260506190011 | 7 | 71 | 1.6 | 6.4 | 0.05 | 2.57 | 1.88 | 95 | 1006.5 |
| 20260506184511 | 7 | 40 | 3.2 | 9.7 | 0.10 | 2.59 | 1.85 | 95 | 1006.4 |
| 20260506183010 | 7 | 74 | 4.8 | 9.7 | 0.18 | 2.59 | 1.85 | 95 | 1006.5 |
| 20260506181513 | 7 | 51 | 3.2 | 14.5 | 0.20 | 2.59 | 1.85 | 96 | 1006.7 |
| 20260506180015 | 6 | 104 | 6.4 | 11.3 | 0.20 | 2.57 | 1.83 | 95 | 1007.0 |
| 20260506174506 | 6 | 99 | 3.2 | 14.5 | 0.15 | 2.49 | 1.75 | 95 | 1007.1 |
| 20260506173005 | 6 | 81 | 11.3 | 16.1 | 0.15 | 2.41 | 1.68 | 95 | 1007.0 |